Pompano Beach, FL

8:34 PM EDT on October 20, 2017 (GMT -0400)
Pompano Beach

Weather History for KPMP - March, 2012

Change the Weather History Date:

Friday, March 2, 2012

  Actual Average Record
Temperature  
Mean Temperature 76 °F -  
Max Temperature 82 °F 79 °F 90 °F (2003)
Min Temperature 69 °F 58 °F 34 °F (1968)
Cooling Degree Days 10    
Growing Degree Days 26 (Base 50)    
Moisture  
Dew Point 69 °F    
Average Humidity 83    
Maximum Humidity 100    
Minimum Humidity 62    
Precipitation  
Precipitation 0.00 in - - ()
Sea Level Pressure  
Sea Level Pressure 30.03 in    
Wind  
Wind Speed 5 mph (SSE)    
Max Wind Speed 17 mph    
Max Gust Speed 26 mph    
Visibility 10 miles    
Events      
Averages and records for this station are not official NWS values.
T = Trace of Precipitation, MM = Missing Value Source: NWS Daily Summary

Daily Weather History Graph

Daily Weather History Graph

Search for Another Location

Airport or City:

Trip Planner

Search our weather history database for the weather conditions in past years. The results will help you decide how hot, cold, wet, or windy it might be!

Date:

Astronomy

Mar. 02, 2012 Rise Set
Actual Time 6:42 AM EST 6:22 PM EST
Civil Twilight 6:19 AM EST 6:45 PM EST
Nautical Twilight 5:52 AM EST 7:12 PM EST
Astronomical Twilight 5:25 AM EST 7:39 PM EST
Moon 12:58 PM EST (3/2) 2:05 AM EST (3/2)
Length of Visible Light 12h 26m
Length of Day
11h 40m
Waxing Gibbous, 66% of the Moon is Illuminated
Mar 2
Waxing Gibbous
Mar 8
Full
Mar 14
Last Quarter
Mar 22
New
Mar 30
First Quarter

Hourly Weather History & Observations

Time (EST) Temp. Heat Index Dew Point Humidity Pressure Visibility Wind Dir Wind Speed Gust Speed Precip Events Conditions
12:53 AM 71.1 °F - 70.0 °F 96% 30.05 in 10.0 mi Calm Calm - N/A   Clear
1:53 AM 70.0 °F - 69.1 °F 97% 30.04 in 10.0 mi Calm Calm - N/A   Scattered Clouds
2:02 AM 71.6 °F - 69.8 °F 94% 30.03 in 10.0 mi Calm Calm - N/A   Mostly Cloudy
2:53 AM 71.1 °F - 69.1 °F 93% 30.03 in 10.0 mi Calm Calm - N/A   Overcast
3:53 AM 71.1 °F - 70.0 °F 96% 30.02 in 10.0 mi Calm Calm - N/A   Overcast
4:38 AM 69.8 °F - 69.8 °F 100% 30.02 in 10.0 mi Calm Calm - N/A   Scattered Clouds
4:53 AM 70.0 °F - 69.1 °F 97% 30.03 in 10.0 mi Calm Calm - N/A   Scattered Clouds
5:53 AM 69.1 °F - 69.1 °F 100% 30.04 in 10.0 mi Calm Calm - N/A   Scattered Clouds
6:21 AM 69.8 °F - 69.8 °F 100% 30.03 in 10.0 mi Calm Calm - N/A   Mostly Cloudy
6:40 AM 71.6 °F - 69.8 °F 94% 30.04 in 10.0 mi South 3.5 mph - N/A   Mostly Cloudy
6:53 AM 72.0 °F - 70.0 °F 93% 30.04 in 10.0 mi South 4.6 mph - N/A   Partly Cloudy
7:53 AM 75.9 °F - 69.1 °F 79% 30.06 in 10.0 mi South 8.1 mph - N/A   Scattered Clouds
8:53 AM 78.1 °F - 68.0 °F 71% 30.07 in 10.0 mi South 12.7 mph 18.4 mph N/A   Partly Cloudy
9:53 AM 80.1 °F 82.3 °F 66.9 °F 64% 30.08 in 10.0 mi South 12.7 mph - N/A   Partly Cloudy
10:53 AM 82.0 °F 84.9 °F 68.0 °F 62% 30.08 in 10.0 mi SSE 12.7 mph 18.4 mph N/A   Mostly Cloudy
11:53 AM 82.0 °F 85.5 °F 69.1 °F 65% 30.06 in 10.0 mi SSE 15.0 mph - N/A   Clear
12:53 PM 81.0 °F 84.4 °F 70.0 °F 69% 30.04 in 10.0 mi SE 12.7 mph 20.7 mph N/A   Mostly Cloudy
1:53 PM 82.0 °F 85.9 °F 70.0 °F 67% 30.02 in 10.0 mi SSE 16.1 mph 21.9 mph N/A   Mostly Cloudy
2:53 PM 82.0 °F 85.5 °F 69.1 °F 65% 30.01 in 10.0 mi SSE 17.3 mph 26.5 mph N/A   Mostly Cloudy
3:53 PM 81.0 °F 84.4 °F 70.0 °F 69% 30.00 in 10.0 mi SSE 17.3 mph 23.0 mph N/A   Clear
4:53 PM 80.1 °F 82.7 °F 68.0 °F 67% 30.00 in 10.0 mi SSE 17.3 mph 24.2 mph N/A   Partly Cloudy
5:53 PM 78.1 °F - 70.0 °F 76% 30.00 in 10.0 mi South 11.5 mph 20.7 mph N/A   Partly Cloudy
6:53 PM 77.0 °F - 70.0 °F 79% 30.01 in 10.0 mi South 11.5 mph - N/A   Clear
7:53 PM 75.9 °F - 70.0 °F 82% 30.02 in 10.0 mi SSE 11.5 mph - N/A   Clear
8:53 PM 75.9 °F - 70.0 °F 82% 30.03 in 10.0 mi South 6.9 mph - N/A   Clear
9:53 PM 75.0 °F - 71.1 °F 87% 30.03 in 10.0 mi South 10.4 mph - N/A   Clear
10:53 PM 75.0 °F - 70.0 °F 84% 30.01 in 10.0 mi South 9.2 mph - N/A   Clear
11:53 PM 75.0 °F - 70.0 °F 84% 30.00 in 10.0 mi SSE 9.2 mph - N/A   Clear